Regional Weather Roundup
Issued by NWS Charleston, WV

Home | Current Version | Previous Version | Graphics & Text | Print | Product List | Glossary On
Versions: 1 2 3 4 5 6 7 8 9 10 11 12 13 14 15 16 17 18 19 20 21 22 23 24 25 26 27 28 29 30 31 32 33 34 35 36 37 38 39 40 41 42 43 44 45 46
000
ASUS41 KRLX 250610
RWRRLX
West Virginia Regional Weather Roundup
National Weather Service Charleston WV
200 AM EDT SAT MAR 25 2017

Note: "fair" indicates few or no clouds below 12,000 feet with no
significant weather and/or obstructions to visibility.

WVZ003-250700-
Northern Panhandle of West Virginia

CITY           SKY/WX    TMP DP  RH WIND       PRES   REMARKS
WHEELING       CLOUDY    65  49  56 SW10      30.13S
$$

WVZ009-250700-
Northwest West Virginia

CITY           SKY/WX    TMP DP  RH WIND       PRES   REMARKS
PARKERSBURG    CLOUDY    63  49  60 SW6       30.18S
$$

WVZ006-250700-
Western West Virginia

CITY           SKY/WX    TMP DP  RH WIND       PRES   REMARKS
HUNTINGTON     PTCLDY    65  48  54 SW6       30.18R
$$

WVZ015-250700-
West Central West Virginia

CITY           SKY/WX    TMP DP  RH WIND       PRES   REMARKS
CHARLESTON     CLOUDY    64  47  53 SW6       30.17S
$$

WVZ022-031-250700-
North Central West Virginia

CITY           SKY/WX    TMP DP  RH WIND       PRES   REMARKS
CLARKSBURG     CLOUDY    61  47  59 SW3       30.17R
MORGANTOWN     MOCLDY    65  48  54 SW5       30.16S
$$

WVZ025-035-042-045-250700-
Southern West Virginia

CITY           SKY/WX    TMP DP  RH WIND       PRES   REMARKS
BECKLEY        PTCLDY    59  45  59 S9        30.24F
LOGAN            N/A     63  48  59 CALM      30.20F
BLUEFIELD      CLOUDY    57  44  62 SW6       30.27F
LEWISBURG      CLOUDY    56  45  66 CALM      30.25F
$$

WVZ047-250700-
Northern Mountains of West Virginia

CITY           SKY/WX    TMP DP  RH WIND       PRES   REMARKS
ELKINS         CLOUDY    50  44  80 CALM      30.21F
$$

WVZ052-250700-
Eastern Panhandle of West Virginia

CITY           SKY/WX    TMP DP  RH WIND       PRES   REMARKS
MARTINSBURG    MOCLDY    61  44  53 S6        30.13F
PETERSBURG     CLOUDY    67  47  48 S12       30.16F
$$




USA.gov is the U.S. government's official web portal to all federal, state and local government web resources and services.